Weather History for KWJF - April, 2013

Change the Weather History Date:

Tuesday, April 2, 2013

  Actual Average Record
Temperature  
Mean Temperature 64 °F 56 °F  
Max Temperature 77 °F 70 °F 92 °F (1966)
Min Temperature 50 °F 41 °F 25 °F (1975)
Degree Days  
Heating Degree Days 1    
Month to date heating degree days 8  
Since 1 July heating degree days 2586  
Cooling Degree Days 0    
Month to date cooling degree days 0  
Year to date cooling degree days 12  
Growing Degree Days 12 (Base 50)    
Moisture  
Dew Point 38 °F    
Average Humidity 45    
Maximum Humidity 71    
Minimum Humidity 19    
Precipitation  
Precipitation 0.00 in 0.02 in 0.24 in (1968)
Month to date precipitation 0.00 0.04  
Year to date precipitation 0.95 4.46  
Since 1 July precipitation 1.11  
Snow  
Snow 0.00 in - 0.00 in ()
Month to date snowfall 0.0  
Since 1 July snowfall 0.0  
Snow Depth 0.00 in    
Sea Level Pressure  
Sea Level Pressure 30.05 in    
Wind  
Wind Speed 11 mph (West)    
Max Wind Speed 30 mph    
Max Gust Speed 35 mph    
Visibility 10 miles    
Events      
T = Trace of Precipitation, MM = Missing Value Source: NWS Daily Summary

Daily Weather History Graph

Daily Weather History Graph

Search for Another Location

Airport or City:

Trip Planner

Search our weather history database for the weather conditions in past years. The results will help you decide how hot, cold, wet, or windy it might be!

Date:

Astronomy

Apr. 02, 2013 Rise Set
Actual Time 6:38 AM PDT 7:15 PM PDT
Civil Twilight 6:12 AM PDT 7:40 PM PDT
Nautical Twilight 5:42 AM PDT 8:10 PM PDT
Astronomical Twilight 5:12 AM PDT 8:41 PM PDT
Moon 1:14 AM PDT (4/2) 11:43 AM PDT (4/2)
Length of Visible Light 13h 28m
Length of Day
12h 37m
Waning Gibbous, 55% of the Moon is Illuminated
Apr 2
Waning Gibbous
Apr 2
Last Quarter
Apr 10
New
Apr 18
First Quarter
Apr 25
Full

Hourly Weather History & Observations

Time (PDT) Temp. Dew Point Humidity Pressure Visibility Wind Dir Wind Speed Gust Speed Precip Events Conditions
12:56 AM 54.0 °F 39.9 °F 59% 30.04 in 10.0 mi West 21.9 mph 25.3 mph N/A   Clear
1:56 AM 53.1 °F 39.9 °F 61% 30.04 in 10.0 mi WSW 13.8 mph - N/A   Clear
2:56 AM 53.1 °F 39.9 °F 61% 30.04 in 10.0 mi West 16.1 mph - N/A   Clear
3:56 AM 52.0 °F 39.9 °F 63% 30.05 in 10.0 mi West 13.8 mph - N/A   Clear
4:56 AM 51.1 °F 39.9 °F 66% 30.06 in 10.0 mi West 9.2 mph - N/A   Clear
5:56 AM 50.0 °F 41.0 °F 71% 30.07 in 10.0 mi West 8.1 mph - N/A   Clear
6:56 AM 50.0 °F 41.0 °F 71% 30.09 in 10.0 mi West 10.4 mph - N/A   Clear
7:56 AM 55.0 °F 42.1 °F 62% 30.10 in 10.0 mi West 11.5 mph - N/A   Clear
8:56 AM 60.1 °F 39.9 °F 47% 30.09 in 10.0 mi WNW 9.2 mph - N/A   Clear
9:56 AM 64.0 °F 37.9 °F 38% 30.09 in 10.0 mi Calm Calm - N/A   Clear
10:56 AM 68.0 °F 35.1 °F 30% 30.08 in 10.0 mi Calm Calm - N/A   Clear
11:56 AM 70.0 °F 33.1 °F 26% 30.06 in 10.0 mi Calm Calm - N/A   Clear
12:56 PM 72.0 °F 32.0 °F 23% 30.04 in 10.0 mi Variable 3.5 mph - N/A   Clear
1:56 PM 73.0 °F 30.0 °F 20% 30.02 in 10.0 mi SSW 6.9 mph - N/A   Clear
2:56 PM 73.9 °F 28.0 °F 18% 30.00 in 10.0 mi Variable 3.5 mph - N/A   Clear
3:56 PM 75.9 °F 32.0 °F 20% 29.98 in 10.0 mi West 17.3 mph 23.0 mph N/A   Clear
4:56 PM 73.0 °F 35.1 °F 25% 29.99 in 10.0 mi West 23.0 mph - N/A   Clear
5:56 PM 68.0 °F 37.9 °F 33% 30.00 in 10.0 mi West 27.6 mph 33.4 mph N/A   Clear
6:56 PM 63.0 °F 39.0 °F 41% 30.03 in 10.0 mi WNW 19.6 mph 31.1 mph N/A   Clear
7:56 PM 60.1 °F 41.0 °F 49% 30.03 in 10.0 mi West 21.9 mph - N/A   Clear
8:56 PM 59.0 °F 41.0 °F 51% 30.05 in 10.0 mi West 18.4 mph - N/A   Clear
9:56 PM 57.9 °F 39.9 °F 51% 30.06 in 10.0 mi West 13.8 mph - N/A   Clear
10:56 PM 57.0 °F 39.9 °F 53% 30.07 in 10.0 mi West 10.4 mph - N/A   Clear
11:56 PM 55.0 °F 37.0 °F 51% 30.06 in 10.0 mi WSW 6.9 mph - N/A   Clear